SCP
0 0 0 0 0 0 0 0 -0 -0 -0 -0 -0 -0 -0 -0 -0 0 0 0 0 0 0 0 0 0 0 0 0 0 0 0 0 0 -0 -0 0 -0 -0 -0 -0 -0 -0
0 0 0 0 0 0 0 0 0 0 -0 -0 -0 0 0 0 -0 0 0 -0 0 0 0 0 0 0 0 0 0 0 0 0 0 0 0 0 0 0 -0 -0 -0 -0 -0
0 0 0 0 0 0 0 0 0 0 0 0 -0 -0 -0 0 0 0 0 -0 -0 0 0 0 0 0 0 0 0 0 0 0 0 0 0 0 0 0 -0 -0 -0 -0 -0
0 0 0 0 0 0 0 0 0 0 0 0 -0 -0 -0 -0 -0 -0 -0 -0 0 0 0 0 -0 0 0 0 0 0 0 0 0 0 0 0 0 0 -0 -0 -0 -0 -0
-0 -0 0 0 0 0 1 1 1 1 1 0 0 0 0 -0 -0 -0 -0 0 0 0 0 -0 0 0 0 0 0 0 0 0 0 0 0 0 0 0 0 -0 -0 -0 -0
-0 -0 -0 0 0 0 1 1 1 1 1 1 0 0 0 0 0 0 0 0 0 0 0 0 0 0 0 0 0 0 0 0 0 0 0 0 0 0 0 -0 -0 -0 -0
-0 -0 -0 0 0 0 1 1 1 1 1 1 0 0 0 0 0 0 0 0 0 0 0 0 0 0 0 0 0 0 0 0 0 0 0 0 0 0 0 0 -0 -0 -0
-0 -0 -0 0 0 1 1 1 1 1 1 1 0 0 0 0 0 0 0 0 0 0 0 0 0 0 0 0 0 0 0 0 0 0 0 0 0 0 0 0 0 0 -0
-0 -0 0 0 0 1 1 1 1 1 0 0 0 0 0 0 0 0 0 0 0 0 0 0 0 0 0 0 0 0 0 0 0 1 0 0 0 0 0 0 0 0 -0
-0 -0 0 0 1 1 0 0 0 0 0 0 0 0 0 0 0 0 0 0 0 0 0 0 0 0 0 0 0 0 0 0 0 0 0 1 1 0 0 0 0 0 0
0 0 0 0 0 0 1 0 0 0 0 0 0 0 0 0 0 0 0 0 0 0 0 0 0 0 0 0 0 0 0 0 0 0 0 1 1 1 1 0 0 0 0
0 0 0 0 0 0 0 0 0 0 0 0 0 0 0 0 0 0 0 0 0 0 0 0 0 0 0 0 0 0 0 0 0 0 0 0 0 0 1 0 0 0 0
0 0 0 0 0 0 0 0 0 0 0 0 0 0 0 0 0 0 0 0 0 0 -0 -0 0 0 0 0 0 0 0 0 0 0 0 0 0 0 1 1 0 0 0
1 0 0 0 0 0 0 0 0 0 0 0 0 0 0 0 0 0 0 0 0 0 -0 -0 -0 -0 0 0 0 0 0 0 0 0 0 0 0 0 0 0 0 0 0
0 -0 0 0 0 0 0 0 0 0 0 0 0 0 0 0 0 0 0 0 0 -0 0 -0 -0 -0 0 0 0 0 0 0 0 0 0 0 0 0 0 0 0 0 1
0 0 0 0 0 0 0 0 0 0 0 0 0 0 0 0 0 0 0 0 0 0 0 0 0 0 0 0 0 0 0 0 0 0 0 0 0 0 0 0 0 0 0
0 0 0 0 0 0 0 0 0 0 0 0 0 0 0 0 0 0 0 0 0 0 0 0 0 0 0 0 0 0 0 0 0 0 0 0 0 0 0 0 0 0 0
0 0 0 0 0 0 0 0 0 0 0 0 0 0 0 0 0 0 0 0 0 0 0 0 0 0 0 0 0 0 0 0 0 0 0 0 0 0 0 0 0 0 0
0 0 0 0 0 1 0 0 0 0 0 0 0 0 0 0 0 0 0 0 0 0 0 0 0 0 0 0 0 0 0 0 0 0 0 0 0 0 0 0 0 0 0
0 0 0 0 1 0 0 0 0 0 0 0 0 0 0 0 0 0 0 0 0 0 0 0 0 0 0 0 0 0 0 0 0 0 0 0 0 0 0 0 0 0 0
0 0 0 0 0 0 0 0 0 0 0 0 0 0 0 0 0 0 0 0 0 0 0 0 0 0 0 0 0 0 0 0 0 0 0 0 0 0 0 0 0 0 0
0 0 0 0 0 0 0 0 0 0 0 0 0 0 0 0 0 0 0 0 0 0 0 0 0 0 0 0 0 0 0 0 0 0 -0 0 0 0 0 0 0 0 0
0 0 0 0 0 0 0 0 0 0 0 0 0 0 0 0 0 0 0 0 0 0 0 0 0 0 0 0 0 0 0 0 0 0 0 0 0 0 0 0 0 0 0
0 0 0 0 0 0 0 0 0 0 0 0 0 0 0 0 0 0 0 0 -0 -0 0 0 0 0 0 0 0 0 0 0 0 -0 0 0 0 0 0 0 0 0 0
0 0 1 0 0 0 0 0 0 0 0 0 0 0 0 0 0 0 0 0 -0 -0 0 -0 0 -0 0 0 0 0 0 0 0 0 0 0 0 1 1 1 1 0 0
0 0 1 0 0 0 0 0 0 0 0 0 0 0 0 0 0 0 0 0 -0 -0 -0 0 0 -0 0 0 0 0 -0 -0 -0 0 0 0 0 1 1 2 1 0 0
Wind_Speed_500mb
7 13 11 13 14 17 17 19 20 23 25 27 25 30 33 33 32 35 33 32 31 34 37 38 34 32 31 30 30 27 26 26 25 27 26 27 29 30 31 27 24 22 23
13 18 16 13 13 16 19 23 27 26 26 30 35 37 34 32 36 38 38 36 31 32 32 33 40 40 36 34 31 33 30 31 31 28 29 29 28 30 31 31 30 27 25
14 15 17 17 18 21 24 27 30 31 33 37 38 35 36 37 38 40 40 38 39 39 37 30 40 44 48 45 40 37 35 33 33 33 32 34 32 30 33 34 33 31 32
13 17 18 20 20 22 24 26 29 32 35 41 42 37 35 35 37 40 40 45 41 43 47 50 48 42 42 51 52 50 47 44 41 39 38 37 38 35 33 34 35 34 34
15 20 25 21 19 20 23 28 31 36 39 42 41 40 40 39 36 35 35 31 37 41 38 42 38 39 41 45 49 53 55 54 52 48 44 42 43 40 37 36 36 35 34
21 24 19 16 20 24 29 34 38 40 42 45 45 43 42 38 30 26 25 28 26 26 31 33 35 44 46 48 51 51 51 53 56 54 53 49 48 47 41 39 37 37 36
23 21 19 21 25 28 31 38 42 45 37 43 43 39 30 25 18 9 21 28 32 32 34 30 30 27 36 43 43 52 60 61 57 57 56 54 52 49 47 44 42 39 38
26 28 30 30 29 32 39 42 45 42 38 40 31 27 24 24 7 40 17 31 17 28 34 34 37 40 44 45 48 50 52 55 61 60 60 59 60 57 54 50 46 43 42
31 34 32 29 33 39 41 43 40 40 35 41 33 19 17 14 43 12 32 20 37 32 41 44 42 43 45 47 50 50 50 55 57 61 62 64 61 63 61 57 56 53 48
35 34 33 34 36 39 43 45 43 39 36 32 27 16 18 24 24 36 29 42 32 45 47 53 56 51 48 49 52 54 56 57 57 55 58 65 67 65 66 63 61 58 57
37 36 34 40 41 39 43 44 43 38 35 29 24 26 24 23 25 29 50 49 49 47 48 50 53 60 60 58 56 56 55 55 59 63 59 55 61 68 67 64 63 61 61
40 35 36 38 42 42 45 45 43 35 32 31 31 28 28 28 34 37 47 54 56 55 52 58 59 60 60 59 60 58 59 57 58 61 68 65 63 64 71 68 66 65 65
41 37 37 45 47 45 45 45 40 35 34 30 34 32 28 29 33 40 46 56 58 67 60 58 58 59 60 56 57 65 63 61 62 62 64 71 68 68 67 71 69 65 63
41 42 40 54 52 48 44 43 39 34 31 31 33 34 36 37 37 40 44 48 63 72 72 69 61 63 60 57 63 70 65 67 62 63 65 68 71 71 68 68 71 69 64
38 63 56 50 51 46 41 39 34 30 28 28 30 39 45 50 47 51 51 45 54 70 80 97 76 69 64 61 61 61 63 68 69 66 67 69 71 73 74 72 71 71 67
46 76 62 50 48 40 36 36 30 26 23 28 35 44 53 50 52 55 53 56 53 66 88 69 88 91 80 73 69 62 64 67 69 76 75 73 75 76 75 76 75 75 72
56 69 70 56 43 38 39 32 27 22 25 29 37 46 53 55 56 56 58 60 56 67 90 107 97 93 102 93 86 77 69 67 62 68 71 77 79 79 79 77 78 75 77
40 61 68 57 41 38 32 29 25 23 27 34 42 51 59 60 61 59 56 71 76 96 96 116 115 102 94 94 85 81 72 58 57 53 58 62 77 80 82 82 81 80 75
44 55 68 49 38 31 30 26 23 25 30 34 44 55 63 62 61 60 68 80 84 95 99 102 106 105 91 83 68 81 64 61 57 56 60 60 69 78 87 87 84 82 75
44 45 47 36 30 31 27 24 23 27 31 38 47 57 65 61 59 61 68 76 86 105 101 97 95 96 84 76 63 67 65 57 53 48 52 58 63 68 92 91 85 82 77
39 39 34 32 32 29 27 21 25 28 36 42 49 60 61 52 52 60 70 81 93 106 90 88 79 76 74 79 67 61 59 49 49 47 51 53 50 59 79 84 85 79 78
40 36 34 32 30 25 23 20 24 30 38 47 56 61 58 54 58 65 71 77 86 89 79 68 72 77 83 70 63 60 58 50 51 39 38 43 48 53 49 55 74 74 69
32 33 32 29 24 23 21 20 24 32 40 49 56 55 53 51 58 67 74 81 97 85 65 63 69 77 78 71 52 52 49 43 40 31 39 39 33 41 37 42 56 60 59
29 29 25 22 22 18 19 21 25 33 40 49 54 49 48 50 55 64 73 82 92 89 70 58 63 65 59 43 37 34 23 20 28 31 23 22 15 21 31 37 45 46 52
28 22 19 19 16 19 18 23 27 32 42 49 50 42 41 46 51 58 70 76 88 88 74 64 57 43 29 5 5 14 12 12 22 19 16 18 13 14 20 22 29 43 48
19 20 16 17 15 18 20 25 29 32 42 50 50 40 34 38 44 52 61 70 77 90 87 78 83 51 40 8 7 4 7 11 12 13 5 18 13 21 16 23 24 38 38
Wind_Direction_500mb
331 335 336 347 359 352 344 333 331 311 303 304 301 299 297 292 285 284 292 289 283 279 275 270 264 273 274 275 269 266 269 272 274 273 263 256 255 253 249 247 242 243 241
297 303 308 318 327 337 341 343 343 336 326 314 305 300 293 293 284 286 289 290 286 284 284 275 265 263 266 268 273 269 266 266 268 268 268 261 255 254 252 247 244 240 241
308 311 317 320 320 322 328 331 331 332 334 329 322 309 297 293 288 289 289 287 288 279 281 280 280 267 262 262 262 265 267 266 267 265 266 265 259 254 252 250 249 242 240
297 315 326 327 310 307 315 320 326 329 329 331 327 326 318 310 296 293 291 281 285 282 280 276 284 263 266 263 264 262 262 264 265 266 262 264 263 257 253 251 249 246 243
297 307 310 314 313 317 317 315 320 322 323 323 322 320 315 311 308 304 299 294 284 287 287 277 273 257 265 264 261 262 263 263 262 260 261 261 261 259 255 252 250 246 243
295 306 297 299 308 314 319 320 319 319 323 319 321 319 318 318 311 296 292 297 300 296 298 295 273 262 266 267 264 261 262 263 262 260 257 257 257 255 256 253 249 249 246
285 279 275 293 306 313 318 320 316 317 316 320 324 324 327 338 326 356 330 308 308 305 296 294 295 286 273 267 266 258 256 257 260 261 257 254 251 254 253 252 251 248 246
270 270 278 285 296 311 320 321 322 322 319 321 326 331 333 343 344 323 339 321 326 319 308 302 294 291 283 280 272 266 262 257 253 254 252 251 252 250 250 251 252 251 248
258 268 271 284 297 308 314 317 323 322 317 319 324 330 334 319 323 329 322 322 317 321 318 314 307 298 294 287 280 272 264 259 257 253 253 249 250 252 248 249 252 252 252
256 261 272 283 293 302 311 320 325 323 323 323 329 324 319 311 319 319 313 318 318 314 315 315 311 306 299 294 288 281 271 268 259 256 251 247 249 248 246 245 247 248 247
255 265 276 289 293 301 311 318 322 324 326 325 321 318 318 317 308 303 306 313 310 310 310 310 309 308 307 300 288 282 278 272 265 255 252 247 245 249 245 244 246 246 244
257 267 283 291 296 303 308 313 317 319 319 319 316 314 314 315 313 308 305 307 308 309 310 305 302 303 302 299 296 286 277 269 263 258 252 250 246 244 247 244 245 245 244
259 267 286 295 294 298 301 306 310 312 315 315 312 312 314 313 309 306 305 307 307 307 310 306 302 299 296 291 290 292 282 270 260 256 251 249 248 246 244 243 240 243 242
266 275 285 287 289 292 294 300 304 308 312 313 315 320 321 320 313 310 306 307 309 311 311 308 305 298 293 288 287 293 282 270 260 251 249 247 245 245 244 242 239 239 239
288 287 284 287 286 288 291 297 299 306 311 313 321 328 329 323 316 314 314 310 307 305 304 312 308 307 295 287 284 285 283 273 263 251 244 242 240 241 242 242 239 233 237
253 275 281 284 286 281 290 294 295 301 309 316 323 328 332 327 321 322 318 315 309 306 297 300 303 311 302 291 288 281 280 281 265 256 243 240 238 238 238 239 238 237 235
259 262 269 278 278 284 286 282 289 295 306 317 322 330 333 328 326 324 320 317 310 312 303 303 300 297 302 295 292 293 291 280 269 261 255 243 238 236 236 237 236 236 235
273 260 263 275 281 278 271 277 279 292 307 318 326 331 335 330 327 322 319 319 315 325 310 301 301 297 293 294 293 289 290 276 265 260 261 258 242 237 234 233 234 235 234
249 261 256 270 268 263 266 271 276 292 305 319 328 333 333 330 328 322 323 323 327 322 309 302 300 301 302 297 278 284 286 286 271 257 257 261 247 239 233 230 231 233 234
250 256 254 252 251 255 259 264 284 286 306 322 328 331 330 328 326 323 323 327 328 323 317 313 309 307 308 304 290 281 278 280 277 268 265 258 248 247 236 228 228 229 231
248 246 241 239 242 244 252 264 279 295 311 320 328 330 327 327 328 327 331 332 333 331 327 319 315 316 312 307 287 273 274 278 275 275 269 262 250 247 236 227 226 224 226
230 232 231 234 236 243 257 265 288 301 312 322 326 329 326 330 332 335 337 342 339 335 325 321 318 309 301 302 294 268 264 271 267 280 265 254 237 233 223 225 225 225 227
222 224 225 229 233 245 253 279 297 306 314 322 324 326 327 332 335 337 341 342 348 347 340 338 325 315 302 288 289 272 264 266 261 266 280 272 226 222 211 223 226 221 223
218 215 220 229 236 248 257 279 302 309 316 324 328 328 327 332 337 341 346 348 353 358 352 345 337 326 308 278 263 265 279 270 266 274 264 255 188 203 206 215 221 218 214
207 211 220 228 243 249 268 288 302 310 320 327 332 332 329 332 338 344 352 352 358 6 358 7 359 350 354 1 229 247 242 232 271 280 245 218 196 171 177 191 210 206 209
210 217 214 228 248 267 283 297 299 311 324 332 334 336 336 335 338 348 357 359 3 12 14 20 24 26 36 31 158 191 172 200 251 306 199 207 194 173 148 146 175 196 200
Wind_Speed_850mb
7 13 11 13 14 17 17 19 20 23 25 27 25 30 33 33 32 35 33 32 31 34 37 38 34 32 31 30 30 27 26 26 25 27 26 27 29 30 31 27 24 22 23
13 18 16 13 13 16 19 23 27 26 26 30 35 37 34 32 36 38 38 36 31 32 32 33 40 40 36 34 31 33 30 31 31 28 29 29 28 30 31 31 30 27 25
14 15 17 17 18 21 24 27 30 31 33 37 38 35 36 37 38 40 40 38 39 39 37 30 40 44 48 45 40 37 35 33 33 33 32 34 32 30 33 34 33 31 32
13 17 18 20 20 22 24 26 29 32 35 41 42 37 35 35 37 40 40 45 41 43 47 50 48 42 42 51 52 50 47 44 41 39 38 37 38 35 33 34 35 34 34
15 20 25 21 19 20 23 28 31 36 39 42 41 40 40 39 36 35 35 31 37 41 38 42 38 39 41 45 49 53 55 54 52 48 44 42 43 40 37 36 36 35 34
21 24 19 16 20 24 29 34 38 40 42 45 45 43 42 38 30 26 25 28 26 26 31 33 35 44 46 48 51 51 51 53 56 54 53 49 48 47 41 39 37 37 36
23 21 19 21 25 28 31 38 42 45 37 43 43 39 30 25 18 9 21 28 32 32 34 30 30 27 36 43 43 52 60 61 57 57 56 54 52 49 47 44 42 39 38
26 28 30 30 29 32 39 42 45 42 38 40 31 27 24 24 7 40 17 31 17 28 34 34 37 40 44 45 48 50 52 55 61 60 60 59 60 57 54 50 46 43 42
31 34 32 29 33 39 41 43 40 40 35 41 33 19 17 14 43 12 32 20 37 32 41 44 42 43 45 47 50 50 50 55 57 61 62 64 61 63 61 57 56 53 48
35 34 33 34 36 39 43 45 43 39 36 32 27 16 18 24 24 36 29 42 32 45 47 53 56 51 48 49 52 54 56 57 57 55 58 65 67 65 66 63 61 58 57
37 36 34 40 41 39 43 44 43 38 35 29 24 26 24 23 25 29 50 49 49 47 48 50 53 60 60 58 56 56 55 55 59 63 59 55 61 68 67 64 63 61 61
40 35 36 38 42 42 45 45 43 35 32 31 31 28 28 28 34 37 47 54 56 55 52 58 59 60 60 59 60 58 59 57 58 61 68 65 63 64 71 68 66 65 65
41 37 37 45 47 45 45 45 40 35 34 30 34 32 28 29 33 40 46 56 58 67 60 58 58 59 60 56 57 65 63 61 62 62 64 71 68 68 67 71 69 65 63
41 42 40 54 52 48 44 43 39 34 31 31 33 34 36 37 37 40 44 48 63 72 72 69 61 63 60 57 63 70 65 67 62 63 65 68 71 71 68 68 71 69 64
38 63 56 50 51 46 41 39 34 30 28 28 30 39 45 50 47 51 51 45 54 70 80 97 76 69 64 61 61 61 63 68 69 66 67 69 71 73 74 72 71 71 67
46 76 62 50 48 40 36 36 30 26 23 28 35 44 53 50 52 55 53 56 53 66 88 69 88 91 80 73 69 62 64 67 69 76 75 73 75 76 75 76 75 75 72
56 69 70 56 43 38 39 32 27 22 25 29 37 46 53 55 56 56 58 60 56 67 90 107 97 93 102 93 86 77 69 67 62 68 71 77 79 79 79 77 78 75 77
40 61 68 57 41 38 32 29 25 23 27 34 42 51 59 60 61 59 56 71 76 96 96 116 115 102 94 94 85 81 72 58 57 53 58 62 77 80 82 82 81 80 75
44 55 68 49 38 31 30 26 23 25 30 34 44 55 63 62 61 60 68 80 84 95 99 102 106 105 91 83 68 81 64 61 57 56 60 60 69 78 87 87 84 82 75
44 45 47 36 30 31 27 24 23 27 31 38 47 57 65 61 59 61 68 76 86 105 101 97 95 96 84 76 63 67 65 57 53 48 52 58 63 68 92 91 85 82 77
39 39 34 32 32 29 27 21 25 28 36 42 49 60 61 52 52 60 70 81 93 106 90 88 79 76 74 79 67 61 59 49 49 47 51 53 50 59 79 84 85 79 78
40 36 34 32 30 25 23 20 24 30 38 47 56 61 58 54 58 65 71 77 86 89 79 68 72 77 83 70 63 60 58 50 51 39 38 43 48 53 49 55 74 74 69
32 33 32 29 24 23 21 20 24 32 40 49 56 55 53 51 58 67 74 81 97 85 65 63 69 77 78 71 52 52 49 43 40 31 39 39 33 41 37 42 56 60 59
29 29 25 22 22 18 19 21 25 33 40 49 54 49 48 50 55 64 73 82 92 89 70 58 63 65 59 43 37 34 23 20 28 31 23 22 15 21 31 37 45 46 52
28 22 19 19 16 19 18 23 27 32 42 49 50 42 41 46 51 58 70 76 88 88 74 64 57 43 29 5 5 14 12 12 22 19 16 18 13 14 20 22 29 43 48
19 20 16 17 15 18 20 25 29 32 42 50 50 40 34 38 44 52 61 70 77 90 87 78 83 51 40 8 7 4 7 11 12 13 5 18 13 21 16 23 24 38 38
Wind_Direction_850mb
331 335 336 347 359 352 344 333 331 311 303 304 301 299 297 292 285 284 292 289 283 279 275 270 264 273 274 275 269 266 269 272 274 273 263 256 255 253 249 247 242 243 241
297 303 308 318 327 337 341 343 343 336 326 314 305 300 293 293 284 286 289 290 286 284 284 275 265 263 266 268 273 269 266 266 268 268 268 261 255 254 252 247 244 240 241
308 311 317 320 320 322 328 331 331 332 334 329 322 309 297 293 288 289 289 287 288 279 281 280 280 267 262 262 262 265 267 266 267 265 266 265 259 254 252 250 249 242 240
297 315 326 327 310 307 315 320 326 329 329 331 327 326 318 310 296 293 291 281 285 282 280 276 284 263 266 263 264 262 262 264 265 266 262 264 263 257 253 251 249 246 243
297 307 310 314 313 317 317 315 320 322 323 323 322 320 315 311 308 304 299 294 284 287 287 277 273 257 265 264 261 262 263 263 262 260 261 261 261 259 255 252 250 246 243
295 306 297 299 308 314 319 320 319 319 323 319 321 319 318 318 311 296 292 297 300 296 298 295 273 262 266 267 264 261 262 263 262 260 257 257 257 255 256 253 249 249 246
285 279 275 293 306 313 318 320 316 317 316 320 324 324 327 338 326 356 330 308 308 305 296 294 295 286 273 267 266 258 256 257 260 261 257 254 251 254 253 252 251 248 246
270 270 278 285 296 311 320 321 322 322 319 321 326 331 333 343 344 323 339 321 326 319 308 302 294 291 283 280 272 266 262 257 253 254 252 251 252 250 250 251 252 251 248
258 268 271 284 297 308 314 317 323 322 317 319 324 330 334 319 323 329 322 322 317 321 318 314 307 298 294 287 280 272 264 259 257 253 253 249 250 252 248 249 252 252 252
256 261 272 283 293 302 311 320 325 323 323 323 329 324 319 311 319 319 313 318 318 314 315 315 311 306 299 294 288 281 271 268 259 256 251 247 249 248 246 245 247 248 247
255 265 276 289 293 301 311 318 322 324 326 325 321 318 318 317 308 303 306 313 310 310 310 310 309 308 307 300 288 282 278 272 265 255 252 247 245 249 245 244 246 246 244
257 267 283 291 296 303 308 313 317 319 319 319 316 314 314 315 313 308 305 307 308 309 310 305 302 303 302 299 296 286 277 269 263 258 252 250 246 244 247 244 245 245 244
259 267 286 295 294 298 301 306 310 312 315 315 312 312 314 313 309 306 305 307 307 307 310 306 302 299 296 291 290 292 282 270 260 256 251 249 248 246 244 243 240 243 242
266 275 285 287 289 292 294 300 304 308 312 313 315 320 321 320 313 310 306 307 309 311 311 308 305 298 293 288 287 293 282 270 260 251 249 247 245 245 244 242 239 239 239
288 287 284 287 286 288 291 297 299 306 311 313 321 328 329 323 316 314 314 310 307 305 304 312 308 307 295 287 284 285 283 273 263 251 244 242 240 241 242 242 239 233 237
253 275 281 284 286 281 290 294 295 301 309 316 323 328 332 327 321 322 318 315 309 306 297 300 303 311 302 291 288 281 280 281 265 256 243 240 238 238 238 239 238 237 235
259 262 269 278 278 284 286 282 289 295 306 317 322 330 333 328 326 324 320 317 310 312 303 303 300 297 302 295 292 293 291 280 269 261 255 243 238 236 236 237 236 236 235
273 260 263 275 281 278 271 277 279 292 307 318 326 331 335 330 327 322 319 319 315 325 310 301 301 297 293 294 293 289 290 276 265 260 261 258 242 237 234 233 234 235 234
249 261 256 270 268 263 266 271 276 292 305 319 328 333 333 330 328 322 323 323 327 322 309 302 300 301 302 297 278 284 286 286 271 257 257 261 247 239 233 230 231 233 234
250 256 254 252 251 255 259 264 284 286 306 322 328 331 330 328 326 323 323 327 328 323 317 313 309 307 308 304 290 281 278 280 277 268 265 258 248 247 236 228 228 229 231
248 246 241 239 242 244 252 264 279 295 311 320 328 330 327 327 328 327 331 332 333 331 327 319 315 316 312 307 287 273 274 278 275 275 269 262 250 247 236 227 226 224 226
230 232 231 234 236 243 257 265 288 301 312 322 326 329 326 330 332 335 337 342 339 335 325 321 318 309 301 302 294 268 264 271 267 280 265 254 237 233 223 225 225 225 227
222 224 225 229 233 245 253 279 297 306 314 322 324 326 327 332 335 337 341 342 348 347 340 338 325 315 302 288 289 272 264 266 261 266 280 272 226 222 211 223 226 221 223
218 215 220 229 236 248 257 279 302 309 316 324 328 328 327 332 337 341 346 348 353 358 352 345 337 326 308 278 263 265 279 270 266 274 264 255 188 203 206 215 221 218 214
207 211 220 228 243 249 268 288 302 310 320 327 332 332 329 332 338 344 352 352 358 6 358 7 359 350 354 1 229 247 242 232 271 280 245 218 196 171 177 191 210 206 209
210 217 214 228 248 267 283 297 299 311 324 332 334 336 336 335 338 348 357 359 3 12 14 20 24 26 36 31 158 191 172 200 251 306 199 207 194 173 148 146 175 196 200